Location: Boca de Tacagua
(10.5333°N, 66.9833°W)
Time: 19:06:18
(UTC+00:00)

XW-2D - Pass Details

Date: 06 April 2023
Orbit: 475 x 489 km, 97.5° (Epoch: 01 June)

Event Time Altitude Azimuth Distance (km) Brightness Sun altitude
Rises 09:36:19 0° 41° (NE) 2,558 ? -12.0°
Reaches altitude 10° 09:39:18 10° 70° (ENE) 1,682 ? -11.3°
Maximum altitude 09:41:06 13° 99° (E) 1,491 ? -10.9°
Drops below altitude 10° 09:42:53 10° 129° (SE) 1,687 ? -10.4°
Sets 09:45:53 0° 157° (SSE) 2,573 ? -9.7°
